College Park, MD

6:23 PM EDT on April 23, 2017 (GMT -0400)
College Park

Weather History for KCGS - January, 2013

Change the Weather History Date:

Tuesday, January 29, 2013

  Actual Average Record
Temperature  
Mean Temperature 52 °F -  
Max Temperature 72 °F 44 °F 73 °F (1975)
Min Temperature 33 °F 24 °F -7 °F (1961)
Degree Days  
Heating Degree Days 12    
Growing Degree Days 2 (Base 50)    
Moisture  
Dew Point 45 °F    
Average Humidity 83    
Maximum Humidity 100    
Minimum Humidity 52    
Precipitation  
Precipitation 0.00 in - - ()
Sea Level Pressure  
Sea Level Pressure 30.06 in    
Wind  
Wind Speed 1 mph (South)    
Max Wind Speed 9 mph    
Max Gust Speed -    
Visibility 7 miles    
Events      
Averages and records for this station are not official NWS values.
T = Trace of Precipitation, MM = Missing Value Source: NWS Daily Summary

Daily Weather History Graph

Daily Weather History Graph

Search for Another Location

Airport or City:

Trip Planner

Search our weather history database for the weather conditions in past years. The results will help you decide how hot, cold, wet, or windy it might be!

Date:

Astronomy

Jan. 29, 2013 Rise Set
Actual Time 7:16 AM EST 5:25 PM EST
Civil Twilight 6:48 AM EST 5:54 PM EST
Nautical Twilight 6:16 AM EST 6:26 PM EST
Astronomical Twilight 5:44 AM EST 6:57 PM EST
Moon 8:17 PM EST (1/29) 8:14 AM EST (1/29)
Length of Visible Light 11h 05m
Length of Day
10h 09m
Waning Gibbous, 94% of the Moon is Illuminated
Jan 29
Waning Gibbous
Feb 3
Last Quarter
Feb 10
New
Feb 17
First Quarter
Feb 25
Full

Hourly Weather History & Observations

Time (EST) Temp. Dew Point Humidity Pressure Visibility Wind Dir Wind Speed Gust Speed Precip Events Conditions
12:15 AM 37.4 °F 37.4 °F 100% 30.07 in 1.5 mi Calm Calm - N/A   Unknown
12:35 AM 36.3 °F 36.3 °F 100% 30.06 in 1.5 mi Calm Calm - N/A   Unknown
1:00 AM 35.8 °F 35.8 °F 100% 30.05 in 1.0 mi Calm Calm - N/A   Unknown
1:20 AM 36.7 °F 36.7 °F 100% 30.05 in 1.5 mi Calm Calm - N/A   Unknown
1:40 AM 34.7 °F 34.7 °F 100% 30.05 in 1.5 mi Calm Calm - N/A   Unknown
1:55 AM 34.9 °F 34.9 °F 100% 30.06 in 1.5 mi Calm Calm - N/A   Unknown
2:25 AM 35.6 °F 35.6 °F 100% 30.07 in 2.0 mi Calm Calm - N/A   Clear
2:45 AM 35.1 °F 35.1 °F 100% 30.07 in 1.5 mi Calm Calm - N/A   Unknown
2:55 AM 34.7 °F 34.7 °F 100% 30.06 in 1.5 mi Calm Calm - N/A   Unknown
3:25 AM 34.2 °F 34.2 °F 100% 30.07 in 1.2 mi Calm Calm - N/A   Unknown
3:50 AM 34.2 °F 34.2 °F 100% 30.07 in 1.5 mi Calm Calm - N/A   Unknown
4:05 AM 34.0 °F 34.0 °F 100% 30.06 in 1.5 mi Calm Calm - N/A   Unknown
4:30 AM 33.8 °F 33.8 °F 100% 30.07 in 1.8 mi Calm Calm - N/A   Unknown
4:50 AM 34.2 °F 34.2 °F 100% 30.07 in 1.8 mi Calm Calm - N/A   Unknown
5:15 AM 34.7 °F 34.7 °F 100% 30.07 in 2.5 mi Calm Calm - N/A   Clear
5:35 AM 34.7 °F 34.7 °F 100% 30.07 in 2.5 mi Calm Calm - N/A   Clear
5:55 AM 35.2 °F 35.2 °F 100% 30.08 in 2.5 mi Calm Calm - N/A   Clear
6:15 AM 34.3 °F 34.3 °F 100% 30.09 in 1.8 mi Calm Calm - N/A   Unknown
6:40 AM 34.2 °F 34.2 °F 100% 30.10 in 1.5 mi Calm Calm - N/A   Unknown
7:00 AM 34.7 °F 34.7 °F 100% 30.11 in 1.5 mi Calm Calm - N/A   Unknown
7:20 AM 35.1 °F 35.1 °F 100% 30.11 in 1.8 mi Calm Calm - N/A   Unknown
7:40 AM 35.6 °F 35.6 °F 100% 30.11 in 1.5 mi Calm Calm - N/A   Scattered Clouds
8:05 AM 37.4 °F 37.4 °F 100% 30.12 in 2.0 mi Calm Calm - N/A   Mostly Cloudy
8:25 AM 38.5 °F 38.5 °F 100% 30.12 in 2.5 mi Calm Calm - N/A   Clear
8:45 AM 40.5 °F 40.5 °F 100% 30.12 in 3.0 mi Calm Calm - N/A   Clear
9:05 AM 45.7 °F 45.3 °F 99% 30.12 in 5.0 mi Calm Calm - N/A   Clear
9:30 AM 50.7 °F 46.6 °F 86% 30.12 in 7.0 mi Calm Calm - N/A   Clear
9:50 AM 53.2 °F 47.1 °F 80% 30.13 in 7.0 mi SSW 3.5 mph - N/A   Clear
10:10 AM 54.9 °F 48.0 °F 78% 30.13 in 10.0 mi SE 3.5 mph - N/A   Clear
10:30 AM 55.9 °F 48.2 °F 75% 30.13 in 10.0 mi Calm Calm - N/A   Clear
10:55 AM 57.9 °F 48.9 °F 72% 30.13 in 10.0 mi SSE 3.5 mph - N/A   Clear
11:15 AM 59.4 °F 49.5 °F 70% 30.11 in 10.0 mi SSE 3.5 mph - N/A   Clear
11:35 AM 61.7 °F 50.5 °F 67% 30.12 in 10.0 mi Calm Calm - N/A   Clear
11:55 AM 62.6 °F 51.1 °F 66% 30.10 in 10.0 mi SSE 3.5 mph - N/A   Clear
12:20 PM 64.6 °F 51.6 °F 63% 30.09 in 10.0 mi Calm Calm - N/A   Clear
12:40 PM 66.4 °F 52.5 °F 61% 30.08 in 10.0 mi South 3.5 mph - N/A   Clear
1:00 PM 68.0 °F 52.7 °F 58% 30.07 in 10.0 mi South 3.5 mph - N/A   Clear
1:20 PM 68.5 °F 53.1 °F 58% 30.04 in 10.0 mi SSE 3.5 mph - N/A   Clear
1:45 PM 70.7 °F 53.8 °F 55% 30.04 in 10.0 mi South 4.6 mph - N/A   Clear
2:05 PM 71.8 °F 54.0 °F 53% 30.04 in 10.0 mi South 3.5 mph - N/A   Clear
2:25 PM 71.8 °F 54.0 °F 53% 30.04 in 10.0 mi South 5.8 mph - N/A   Clear
2:45 PM 72.1 °F 53.8 °F 52% 30.04 in 10.0 mi South 5.8 mph - N/A   Clear
3:10 PM 72.5 °F 54.0 °F 52% 30.03 in 10.0 mi SSE 8.1 mph - N/A   Clear
3:30 PM 72.0 °F 53.8 °F 53% 30.03 in 10.0 mi South 5.8 mph - N/A   Clear
3:50 PM 71.6 °F 53.8 °F 53% 30.03 in 10.0 mi SSE 8.1 mph - N/A   Clear
4:10 PM 71.4 °F 53.8 °F 54% 30.03 in 10.0 mi South 9.2 mph - N/A   Clear
4:35 PM 70.7 °F 53.8 °F 55% 30.03 in 10.0 mi South 5.8 mph - N/A   Clear
4:55 PM 70.0 °F 53.8 °F 56% 30.03 in 10.0 mi South 5.8 mph - N/A   Clear
5:15 PM 69.3 °F 53.8 °F 58% 30.03 in 10.0 mi South 5.8 mph - N/A   Clear
5:35 PM 68.2 °F 53.6 °F 60% 30.02 in 10.0 mi SSE 5.8 mph - N/A   Clear
6:00 PM 67.1 °F 53.8 °F 62% 30.02 in 10.0 mi Calm Calm - N/A   Clear
6:20 PM 62.2 °F 53.2 °F 72% 30.02 in 10.0 mi Calm Calm - N/A   Clear
6:40 PM 62.8 °F 53.4 °F 71% 30.03 in 10.0 mi Calm Calm - N/A   Clear
7:00 PM 63.5 °F 53.6 °F 70% 30.03 in 10.0 mi SSE 3.5 mph - N/A   Clear
7:25 PM 59.0 °F 52.2 °F 78% 30.03 in 10.0 mi Calm Calm - N/A   Clear
7:45 PM 53.8 °F 50.7 °F 89% 30.03 in 10.0 mi Calm Calm - N/A   Clear
8:05 PM 52.2 °F 49.6 °F 91% 30.03 in 10.0 mi Calm Calm - N/A   Clear
8:25 PM 50.5 °F 48.9 °F 94% 30.04 in 10.0 mi Calm Calm - N/A   Clear
8:50 PM 50.2 °F 48.9 °F 95% 30.03 in 10.0 mi Calm Calm - N/A   Clear
9:10 PM 49.6 °F 49.1 °F 98% 30.03 in 10.0 mi Calm Calm - N/A   Clear
9:30 PM 49.3 °F 48.2 °F 96% 30.03 in 10.0 mi Calm Calm - N/A   Clear
9:50 PM 47.8 °F 47.3 °F 98% 30.03 in 10.0 mi Calm Calm - N/A   Clear
10:15 PM 47.5 °F 47.3 °F 99% 30.02 in 10.0 mi Calm Calm - N/A   Clear
10:55 PM 46.4 °F 46.4 °F 100% 30.02 in 5.0 mi Calm Calm - N/A   Clear
11:15 PM 46.9 °F 46.9 °F 100% 30.01 in 7.0 mi Calm Calm - N/A   Clear
11:40 PM 45.5 °F 45.5 °F 100% 30.00 in 7.0 mi Calm Calm - N/A   Clear